Regional Weather Roundup
Issued by NWS

Home | Current Version | Previous Version | Text Only | Print | Product List | Glossary On
Versions: 1 2 3 4 5 6 7 8 9 10 11 12 13 14 15 16 17 18 19 20 21 22 23 24 25 26 27
000
ASUS46 KPQR 231510
RWROR

OREGON REGIONAL WEATHER ROUNDUP
NATIONAL WEATHER SERVICE PORTLAND OR
700 AM PST MON JAN 23 2017

NOTE: "FAIR" INDICATES FEW OR NO CLOUDS BELOW 12,000 FEET WITH
NO SIGNIFICANT WEATHER AND/OR OBSTRUCTIONS TO VISIBILITY.

ORZ001>013-231600-
NORTHWEST OREGON


CITY           SKY/WX    TMP DP  RH WIND       PRES   REMARKS
ASTORIA        CLEAR     40  31  70 CALM      29.67R
NEWPORT        PTCLDY    41  34  75 SE6       29.66R
PORTLAND       MOCLDY    36  33  89 VRB6      29.71R WCI  31
VANCOUVER WA   PTCLDY    32  30  92 CALM      29.71R
SCAPPOOSE      PTCLDY    30  30 100 W5        29.71R WCI  25
HILLSBORO      CLOUDY    31  29  92 W3        29.70R
AURORA         PTCLDY    35  32  88 N3        29.69R
MCMINNVILLE    PTCLDY    34  31  88 CALM      29.69R
SALEM          MOCLDY    32  30  92 W5        29.68R WCI  27
CORVALLIS        N/A     32  28  86 NW5       29.68R WCI  27
EUGENE         MOCLDY    35  32  88 S7        29.67R WCI  29
$$

ORZ021-028-231600-
SOUTHWEST OREGON


CITY           SKY/WX    TMP DP  RH WIND       PRES   REMARKS
NORTH BEND     PTCLDY    41  37  87 SE9       29.64R
BROOKINGS      LGT RAIN  41  38  89 SE8       29.68R
ROSEBURG       MOCLDY    34  32  92 CALM      29.66R
SEXTON SUMMIT  CLOUDY    28  25  88 SE13      29.57R WCI  17
MEDFORD        FOG       32  32 100 CALM      29.68R VSB 1/2
$$

ORZ014>016-041-231600-
COLUMBIA GORGE


CITY           SKY/WX    TMP DP  RH WIND       PRES   REMARKS
TROUTDALE      MOCLDY    39  34  82 E17       29.71R WCI  30
THE DALLES     SNOW      33  32  96 SW3       29.77R VSB 1/2
$$

ORZ029>031-041-044-049-050-061>064-502-503-505>511-231600-
EASTERN OREGON


CITY           SKY/WX    TMP DP  RH WIND       PRES   REMARKS
REDMOND        CLOUDY    29  26  89 CALM      29.64R
BEND           FOG       23  21  93 CALM      29.63R VSB 1/2
PRINEVILLE     LGT SNOW  28  28 100 CALM      29.64R
KLAMATH FALLS  FOG       16  15  96 SE5       29.62R VSB 1/4 WCI   9
LAKEVIEW       CLOUDY    25  19  80 S10       29.61R WCI  15
HERMISTON      FOG       28  28 100 S6        29.75R VSB 1/2 WCI  22
PENDLETON      FOG       28  27  96 NW9       29.70R VSB 1/4 WCI  19
JOHN DAY       CLOUDY    25  20  81 CALM      29.62R
MEACHAM        CLOUDY    13   7  77 CALM      29.60S
LA GRANDE      CLOUDY    28  23  80 NW9       29.65R WCI  20
BAKER CITY     CLOUDY    19  16  88 S3        29.64R FOG
BURNS          LGT SNOW  20  17  88 W7        29.60R FOG     WCI  11
ROME             N/A     29  26  89 SW6       29.57R WCI  23
ONTARIO        CLOUDY    27  24  89 W9        29.65R WCI  18
$$




USA.gov is the U.S. government's official web portal to all federal, state and local government web resources and services.